Alexander City, AL

2:47 AM CDT on April 30, 2017 (GMT -0500)
Russell

Weather History for KALX - January, 2014

Change the Weather History Date:

Sunday, January 12, 2014

  Actual Average (KAUO) Record (KAUO)
Temperature  
Mean Temperature 48 °F -  
Max Temperature 63 °F 52 °F 75 °F (2013)
Min Temperature 33 °F 29 °F 0 °F (1982)
Degree Days  
Heating Degree Days 17    
Moisture  
Dew Point 34 °F    
Average Humidity 65    
Maximum Humidity 88    
Minimum Humidity 23    
Precipitation  
Precipitation 0.00 in - - ()
Sea Level Pressure  
Sea Level Pressure 30.14 in    
Wind  
Wind Speed 2 mph (SW)    
Max Wind Speed 9 mph    
Max Gust Speed -    
Visibility 10 miles    
Events      
Averages and records for this station are not official NWS values.
T = Trace of Precipitation, MM = Missing Value Source: NWS Daily Summary

Daily Weather History Graph

Daily Weather History Graph

Search for Another Location

Airport or City:

Trip Planner

Search our weather history database for the weather conditions in past years. The results will help you decide how hot, cold, wet, or windy it might be!

Date:

Astronomy

Jan. 12, 2014 Rise Set
Actual Time 6:47 AM CST 4:57 PM CST
Civil Twilight 6:20 AM CST 5:24 PM CST
Nautical Twilight 5:49 AM CST 5:54 PM CST
Astronomical Twilight 5:20 AM CST 6:24 PM CST
Moon 2:23 PM CST (1/12) 3:46 AM CST (1/12)
Length of Visible Light 11h 04m
Length of Day
10h 10m
Waxing Gibbous, 90% of the Moon is Illuminated
Jan 12
Waxing Gibbous
Jan 15
Full
Jan 23
Last Quarter
Jan 30
New
Feb 6
First Quarter

Hourly Weather History & Observations

Time (CST) Temp. Windchill Dew Point Humidity Pressure Visibility Wind Dir Wind Speed Gust Speed Precip Events Conditions
12:15 AM 42.8 °F 41.1 °F 36.5 °F 78% 30.04 in 10.0 mi West 3.5 mph - N/A   Clear
12:35 AM 42.8 °F 40.1 °F 36.0 °F 77% 30.05 in 10.0 mi West 4.6 mph - N/A   Clear
12:55 AM 44.1 °F 41.5 °F 36.9 °F 76% 30.05 in 10.0 mi West 4.6 mph - N/A   Clear
1:15 AM 43.0 °F 40.3 °F 37.0 °F 80% 30.06 in 10.0 mi West 4.6 mph - N/A   Clear
1:35 AM 42.8 °F - 36.9 °F 80% 30.06 in 10.0 mi Calm Calm - N/A   Clear
1:55 AM 41.4 °F - 36.1 °F 82% 30.07 in 10.0 mi Calm Calm - N/A   Clear
2:15 AM 38.7 °F - 33.8 °F 83% 30.08 in 10.0 mi Calm Calm - N/A   Clear
2:35 AM 40.1 °F - 35.8 °F 85% 30.08 in 10.0 mi Calm Calm - N/A   Clear
2:55 AM 39.0 °F - 34.9 °F 85% 30.08 in 10.0 mi Calm Calm - N/A   Clear
3:15 AM 38.3 °F - 34.2 °F 85% 30.08 in 10.0 mi Calm Calm - N/A   Clear
3:35 AM 38.1 °F - 34.3 °F 86% 30.08 in 10.0 mi Calm Calm - N/A   Scattered Clouds
3:55 AM 37.8 °F - 33.8 °F 86% 30.09 in 10.0 mi Calm Calm - N/A   Scattered Clouds
4:15 AM 37.6 °F - 33.8 °F 86% 30.09 in 10.0 mi Calm Calm - N/A   Clear
4:35 AM 37.6 °F - 33.8 °F 86% 30.10 in 7.0 mi Calm Calm - N/A   Clear
4:55 AM 37.6 °F - 33.8 °F 86% 30.10 in 10.0 mi Calm Calm - N/A   Scattered Clouds
5:15 AM 35.1 °F - 31.6 °F 87% 30.10 in 10.0 mi Calm Calm - N/A   Scattered Clouds
5:35 AM 35.2 °F - 32.0 °F 88% 30.11 in 10.0 mi Calm Calm - N/A   Clear
5:55 AM 35.1 °F - 31.6 °F 87% 30.12 in 10.0 mi Calm Calm - N/A   Clear
6:15 AM 35.1 °F - 31.6 °F 87% 30.12 in 10.0 mi Calm Calm - N/A   Clear
6:35 AM 35.1 °F - 31.6 °F 87% 30.13 in 10.0 mi Calm Calm - N/A   Clear
6:55 AM 35.1 °F - 31.5 °F 87% 30.14 in 10.0 mi Calm Calm - N/A   Clear
7:15 AM 33.8 °F - 30.4 °F 87% 30.16 in 10.0 mi Calm Calm - N/A   Clear
7:35 AM 35.1 °F - 31.6 °F 87% 30.16 in 10.0 mi Calm Calm - N/A   Clear
7:55 AM 37.6 °F - 33.8 °F 86% 30.17 in 10.0 mi Calm Calm - N/A   Clear
8:15 AM 40.1 °F - 36.1 °F 86% 30.18 in 10.0 mi Calm Calm - N/A   Clear
8:35 AM 42.8 °F - 38.1 °F 84% 30.19 in 10.0 mi Calm Calm - N/A   Clear
8:55 AM 46.4 °F - 40.1 °F 79% 30.21 in 10.0 mi Calm Calm - N/A   Clear
9:15 AM 50.2 °F - 41.2 °F 71% 30.22 in 10.0 mi Calm Calm - N/A   Clear
9:35 AM 51.3 °F - 39.9 °F 65% 30.22 in 10.0 mi West 3.5 mph - N/A   Clear
9:55 AM 55.4 °F - 41.5 °F 60% 30.22 in 10.0 mi SW 3.5 mph - N/A   Clear
10:15 AM 55.4 °F - 39.0 °F 54% 30.21 in 10.0 mi Calm Calm - N/A   Clear
10:35 AM 57.7 °F - 36.7 °F 45% 30.21 in 10.0 mi West 3.5 mph - N/A   Clear
10:55 AM 58.1 °F - 36.0 °F 44% 30.20 in 10.0 mi Calm Calm - N/A   Clear
11:15 AM 59.2 °F - 35.1 °F 40% 30.18 in 10.0 mi Calm Calm - N/A   Clear
11:35 AM 60.3 °F - 32.4 °F 35% 30.18 in 10.0 mi Calm Calm - N/A   Clear
11:55 AM 60.8 °F - 30.9 °F 32% 30.16 in 10.0 mi WSW 8.1 mph - N/A   Clear
12:15 PM 61.7 °F - 30.0 °F 30% 30.16 in 10.0 mi SW 8.1 mph - N/A   Clear
12:35 PM 61.9 °F - 27.7 °F 27% 30.15 in 10.0 mi WSW 5.8 mph - N/A   Clear
12:55 PM 62.8 °F - 28.6 °F 27% 30.15 in 10.0 mi SW 6.9 mph - N/A   Clear
1:15 PM 62.8 °F - 28.2 °F 27% 30.14 in 10.0 mi SSW 8.1 mph - N/A   Clear
1:35 PM 63.1 °F - 26.6 °F 25% 30.14 in 10.0 mi SW 9.2 mph - N/A   Clear
1:55 PM 63.1 °F - 26.6 °F 25% 30.14 in 10.0 mi South 4.6 mph - N/A   Clear
2:15 PM 63.7 °F - 25.5 °F 24% 30.13 in 10.0 mi SSW 6.9 mph - N/A   Clear
2:35 PM 63.5 °F - 26.6 °F 25% 30.13 in 10.0 mi South 4.6 mph - N/A   Clear
2:55 PM 63.9 °F - 25.5 °F 23% 30.13 in 10.0 mi SSW 6.9 mph - N/A   Clear
3:15 PM 63.5 °F - 25.7 °F 24% 30.13 in 10.0 mi South 4.6 mph - N/A   Clear
3:35 PM 63.5 °F - 27.5 °F 26% 30.13 in 10.0 mi SSW 6.9 mph - N/A   Clear
3:55 PM 62.8 °F - 26.6 °F 25% 30.12 in 10.0 mi South 5.8 mph - N/A   Clear
4:15 PM 62.4 °F - 28.4 °F 28% 30.13 in 10.0 mi SSE 4.6 mph - N/A   Clear
4:35 PM 61.7 °F - 26.2 °F 26% 30.13 in 10.0 mi SSW 3.5 mph - N/A   Clear
4:55 PM 60.3 °F - 27.3 °F 29% 30.14 in 10.0 mi Calm Calm - N/A   Clear
5:15 PM 56.3 °F - 31.1 °F 38% 30.14 in 10.0 mi Calm Calm - N/A   Clear
5:35 PM 52.5 °F - 39.2 °F 61% 30.15 in 10.0 mi Calm Calm - N/A   Clear
5:55 PM 50.2 °F - 34.2 °F 54% 30.15 in 10.0 mi Calm Calm - N/A   Clear
6:15 PM 50.2 °F - 39.2 °F 66% 30.15 in 10.0 mi Calm Calm - N/A   Clear
6:35 PM 50.2 °F - 42.4 °F 75% 30.15 in 10.0 mi Calm Calm - N/A   Clear
6:55 PM 48.0 °F - 39.6 °F 73% 30.14 in 10.0 mi Calm Calm - N/A   Clear
7:15 PM 44.8 °F - 37.0 °F 74% 30.14 in 10.0 mi Calm Calm - N/A   Clear
7:35 PM 43.3 °F - 35.4 °F 74% 30.15 in 10.0 mi Calm Calm - N/A   Clear
7:55 PM 42.1 °F - 35.4 °F 77% 30.15 in 10.0 mi Calm Calm - N/A   Clear
8:15 PM 42.8 °F - 35.6 °F 76% 30.16 in 10.0 mi Calm Calm - N/A   Clear
8:35 PM 41.7 °F - 35.4 °F 78% 30.16 in 10.0 mi Calm Calm - N/A   Clear
8:55 PM 41.4 °F - 34.7 °F 77% 30.16 in 10.0 mi Calm Calm - N/A   Clear
9:15 PM 41.4 °F - 35.6 °F 80% 30.16 in 10.0 mi Calm Calm - N/A   Clear
9:35 PM 40.1 °F - 34.2 °F 79% 30.15 in 10.0 mi Calm Calm - N/A   Clear
9:55 PM 40.1 °F - 34.7 °F 81% 30.15 in 10.0 mi Calm Calm - N/A   Clear
10:15 PM 40.8 °F - 35.2 °F 80% 30.15 in 10.0 mi Calm Calm - N/A   Clear
10:35 PM 40.1 °F - 34.7 °F 81% 30.15 in 10.0 mi Calm Calm - N/A   Clear
10:55 PM 39.4 °F - 34.5 °F 83% 30.16 in 10.0 mi Calm Calm - N/A   Clear
11:15 PM 37.8 °F - 33.3 °F 84% 30.16 in 10.0 mi Calm Calm - N/A   Clear
11:35 PM 37.6 °F - 32.9 °F 83% 30.15 in 10.0 mi Calm Calm - N/A   Clear
11:55 PM 38.8 °F - 34.3 °F 84% 30.14 in 10.0 mi Calm Calm - N/A   Clear